Probability
0 0 0 0 0 0 0 0 0 0 0 0 0 0 0 0 0 0 0 0 0 0 0 0 0 0 0 0 0 0 0 0 0 0 0 0 0 0 0 0 0 0 0
0 0 0 0 0 0 0 0 0 0 0 0 0 0 0 0 0 0 0 0 0 0 0 0 0 0 0 0 0 0 0 0 0 0 0 0 0 0 0 0 0 0 0
0 0 0 0 0 0 0 0 0 0 0 0 0 0 0 0 0 0 0 0 0 0 0 0 0 0 0 0 0 0 0 0 0 0 0 0 0 0 0 0 0 0 0
0 0 0 0 0 0 0 0 0 0 0 0 0 0 0 0 0 0 0 0 0 0 0 0 0 0 0 0 0 0 0 0 0 0 0 0 0 0 0 0 0 0 0
0 0 0 0 0 0 0 0 0 0 0 0 0 0 0 0 0 0 0 0 0 0 0 0 0 0 0 0 0 0 0 0 0 0 0 0 0 0 0 0 0 0 0
0 0 0 0 0 0 0 0 0 0 0 0 0 0 0 0 0 0 0 0 0 0 0 0 0 0 0 0 0 0 0 0 0 0 0 0 0 0 0 0 0 0 0
0 0 0 0 0 0 0 0 0 0 0 0 0 0 0 0 0 0 0 0 0 0 0 0 0 0 0 0 0 0 0 0 0 0 0 0 0 0 0 0 0 0 0
0 0 0 0 0 0 0 0 0 0 0 0 0 0 0 0 0 0 0 0 0 0 0 0 0 0 0 0 0 0 0 0 0 0 0 0 0 0 0 0 0 0 0
0 0 0 0 0 0 0 0 0 0 0 0 0 0 0 0 0 0 0 0 0 0 0 0 0 0 0 0 0 0 0 0 0 0 0 0 0 0 0 0 0 0 0
0 0 0 0 0 0 0 0 0 0 0 0 0 0 0 0 0 0 0 0 0 0 0 0 0 0 0 0 0 0 0 0 0 0 0 0 0 0 0 0 0 0 0
0 0 0 0 0 0 0 0 0 0 0 0 0 0 0 0 0 0 0 0 0 0 0 0 0 0 0 0 0 0 0 0 0 0 0 0 0 0 0 0 0 0 0
0 0 0 0 0 0 0 0 0 0 0 0 0 0 0 0 0 0 0 0 0 0 0 0 0 0 0 0 0 0 0 0 0 0 0 0 0 0 0 0 0 0 0
0 0 0 0 0 0 0 0 0 0 0 0 0 0 0 0 0 0 0 0 0 0 0 0 0 0 0 0 0 0 0 0 0 0 0 0 0 0 0 0 0 0 0
0 0 0 0 0 0 0 0 0 0 0 0 0 0 0 0 0 0 0 0 0 0 0 0 0 0 0 0 0 0 0 0 0 0 0 0 0 0 0 0 0 0 0
0 0 0 0 0 0 0 0 0 0 0 0 0 0 0 0 0 0 0 0 0 0 0 0 0 0 0 0 0 0 0 0 0 0 0 0 0 0 0 0 0 0 0
0 0 0 0 0 0 0 0 0 0 0 0 0 0 0 0 0 0 0 0 0 0 0 0 0 0 0 0 0 0 0 0 0 0 0 0 0 0 0 0 0 0 0
0 0 0 0 0 0 0 0 0 0 0 0 0 0 0 0 0 0 0 0 0 0 0 0 0 0 0 0 0 0 0 0 0 0 0 0 0 0 0 0 0 0 0
0 0 0 0 0 0 0 0 0 0 0 0 0 0 0 0 0 0 0 0 0 0 0 0 0 0 0 0 0 0 0 0 0 0 0 0 0 0 0 0 0 0 0
0 0 0 0 0 0 0 0 0 0 0 0 0 0 0 0 0 0 0 0 0 0 0 0 0 0 0 0 0 0 0 0 0 0 0 0 0 0 0 0 0 0 0
0 0 0 0 0 0 0 0 0 0 0 0 0 0 0 0 0 0 0 0 0 0 0 0 0 0 0 0 0 0 0 0 0 0 0 0 0 0 0 0 0 0 0
0 0 0 0 0 0 0 0 0 0 0 0 0 0 0 0 0 0 0 0 0 0 0 0 0 0 0 0 0 0 0 0 0 0 0 0 0 0 0 0 0 0 0
0 0 0 0 0 0 0 0 0 0 0 0 0 0 0 0 0 0 0 0 0 0 0 0 0 0 0 0 0 0 0 0 0 0 0 0 0 0 0 0 0 0 0
0 0 0 0 0 0 0 0 0 0 0 0 0 0 0 0 0 0 0 0 0 0 0 0 0 0 0 0 0 0 0 0 0 0 0 0 0 0 0 0 0 0 0
0 0 0 0 0 0 0 0 0 0 0 0 0 0 0 0 0 0 0 0 0 0 0 0 0 0 0 0 0 0 0 0 0 0 0 0 0 0 0 0 0 0 0
0 0 0 0 0 0 0 0 0 0 0 0 0 0 0 0 0 0 0 0 0 0 0 0 0 0 0 0 0 0 0 0 0 0 0 0 0 0 0 0 0 0 0
0 0 0 0 0 0 0 0 0 0 0 0 0 0 0 0 0 0 0 0 0 0 0 0 0 0 0 0 0 0 0 0 0 0 0 0 0 0 0 0 0 0 0
Wind_Speed
4 3 3 3 4 4 4 5 5 5 5 7 7 7 7 6 5 4 3 3 4 4 4 5 6 5 5 5 5 5 4 4 4 3 2 2 4 4 3 2 3 3 3
5 4 4 4 5 5 5 5 4 5 6 6 6 6 5 5 5 5 5 6 5 6 6 6 7 6 7 5 5 7 6 5 5 5 3 3 3 4 4 3 2 2 3
5 6 5 6 6 7 6 5 4 3 3 3 5 5 5 5 5 6 7 7 7 7 7 8 8 8 9 7 7 7 6 5 4 5 4 2 2 3 3 2 2 2 1
5 5 6 7 7 8 7 6 5 4 4 4 4 4 4 5 6 6 6 7 7 7 7 8 8 10 10 9 8 8 7 6 5 5 5 3 3 3 3 3 2 1 1
5 6 7 6 6 6 7 7 7 7 7 6 5 4 4 4 5 6 6 7 8 8 8 8 9 12 13 10 8 8 9 8 6 5 4 4 5 5 6 4 4 2 1
6 7 6 5 5 6 6 7 7 7 6 6 6 5 4 3 4 5 6 6 7 8 8 7 7 9 13 16 16 15 15 13 11 8 5 6 8 7 5 5 5 4 3
7 6 6 6 6 6 6 6 7 7 7 6 5 4 4 4 6 6 5 4 6 6 6 4 4 5 8 7 11 15 16 19 19 12 10 9 10 11 11 8 6 4 4
7 7 6 6 7 6 6 7 7 5 5 5 4 4 3 4 5 5 6 3 4 5 5 5 4 3 3 6 5 7 9 12 15 13 12 10 8 10 11 10 8 6 4
5 6 6 6 6 6 7 6 5 5 4 3 3 4 3 3 4 4 2 2 3 3 3 4 4 3 4 5 5 6 7 7 9 9 6 7 12 16 14 9 8 5 3
3 5 5 6 6 7 6 5 4 4 5 5 3 3 3 3 4 3 4 2 2 1 2 3 7 7 6 5 3 4 5 5 4 5 5 8 9 15 20 13 11 8 4
3 2 2 3 5 5 4 5 6 6 5 5 4 2 2 3 3 3 6 3 3 3 3 2 2 6 6 6 5 3 2 3 4 5 4 4 4 6 9 8 8 7 6
3 3 2 1 1 1 3 4 6 6 5 4 2 1 0 1 2 3 6 7 5 4 3 2 2 4 4 4 4 3 4 4 3 4 4 5 6 6 6 7 6 4 3
4 3 2 2 2 3 3 4 3 3 3 3 2 1 1 1 2 3 4 7 7 3 2 4 3 2 3 2 2 2 4 3 3 4 5 5 4 4 5 5 5 5 3
3 2 1 2 3 4 3 2 2 2 2 2 2 1 2 2 2 1 0 3 5 3 3 4 5 4 2 2 2 1 2 3 3 3 3 3 3 4 5 5 5 5 4
2 2 2 2 3 3 3 2 1 1 2 2 1 2 2 3 3 5 4 3 4 4 5 3 2 1 1 0 0 0 1 1 2 2 2 3 4 5 5 5 5 5 5
2 1 1 1 2 3 3 4 7 5 5 3 1 1 2 3 3 3 6 7 10 12 5 3 2 2 3 3 2 2 2 3 3 3 3 4 5 6 6 5 5 6 7
3 2 1 1 2 2 2 3 2 4 6 7 7 5 4 4 4 2 5 9 11 9 3 2 3 3 3 3 3 3 3 2 2 3 4 4 4 5 5 6 7 6 6
3 3 3 2 2 2 2 2 1 1 1 2 5 8 8 7 7 8 10 8 4 3 1 2 2 3 3 3 3 3 3 3 3 3 3 3 3 3 4 6 7 7 6
3 2 2 2 2 2 2 2 1 2 2 2 2 3 6 6 7 6 5 2 2 2 2 2 2 3 3 3 3 3 3 3 3 3 3 3 3 3 3 4 5 8 6
3 5 4 2 2 2 2 2 2 2 3 2 2 1 1 2 2 2 1 1 0 2 2 3 3 3 3 3 3 3 3 3 3 3 3 3 3 3 4 5 5 5 4
3 3 5 3 2 2 2 3 3 3 3 2 1 1 3 1 0 1 1 1 2 2 2 3 3 3 3 3 3 4 5 4 4 4 4 4 4 3 3 2 3 3 4
3 2 2 2 2 2 3 3 3 2 2 2 1 1 3 0 0 1 1 1 2 2 2 2 2 3 3 3 3 4 4 4 4 4 4 4 4 4 3 3 3 3 3
3 3 2 1 1 3 3 3 2 2 1 1 2 1 1 0 1 1 2 1 1 2 2 2 3 3 3 3 3 4 4 4 4 4 5 5 5 5 5 5 6 5 5
3 3 3 2 3 3 3 3 2 2 2 2 2 1 0 0 1 2 2 1 1 1 2 2 3 4 5 4 3 3 4 4 3 4 6 6 6 5 5 5 6 7 6
4 4 3 3 3 3 3 2 2 2 2 2 1 1 1 2 2 2 2 2 2 2 3 3 2 3 5 5 5 4 5 6 5 3 4 4 6 6 6 6 5 5 5
4 4 4 3 3 3 2 2 2 3 2 2 2 2 2 3 3 3 3 3 3 3 3 3 4 4 5 4 5 5 5 5 5 6 4 4 5 4 5 4 6 5 6
Wind_Direction
193 202 189 194 196 184 181 186 180 171 168 173 180 184 188 194 199 202 202 209 213 212 201 203 215 197 192 193 190 181 176 156 149 145 134 145 151 151 115 87 73 50 33
183 193 201 187 185 184 185 186 178 175 179 179 180 189 193 192 192 201 215 221 223 231 230 219 222 205 203 193 190 191 184 167 147 159 156 145 155 150 126 115 83 66 22
177 188 199 192 189 192 191 187 183 179 185 180 178 185 186 188 197 207 212 219 220 226 226 224 223 203 208 200 196 194 186 179 147 143 151 137 131 141 126 105 84 34 14
185 197 205 203 199 196 190 186 183 179 183 186 189 195 202 204 204 208 212 222 227 230 225 222 219 210 210 200 198 191 175 171 153 141 147 150 145 140 143 154 158 144 80
195 214 223 208 196 190 187 188 185 187 192 190 198 215 221 213 207 204 209 218 225 228 223 217 216 216 216 204 194 186 176 176 166 162 156 152 167 171 190 168 153 137 152
205 221 225 204 191 190 186 179 181 191 195 190 201 213 225 229 239 233 216 216 221 221 224 221 216 219 223 214 207 194 184 182 185 179 170 180 193 187 157 157 140 148 200
216 224 214 200 197 195 183 177 185 189 188 193 198 202 225 252 270 276 271 234 222 218 212 205 213 209 208 207 213 206 199 201 196 187 187 192 186 185 169 165 168 164 183
215 225 220 208 208 197 188 193 194 186 188 190 192 196 215 258 278 302 308 246 221 213 198 191 205 217 197 199 200 198 198 207 206 200 203 201 188 174 174 173 156 123 90
229 234 234 225 218 203 200 201 190 178 175 166 175 185 202 258 289 296 260 207 226 220 197 184 180 176 183 187 187 195 200 211 209 203 201 184 173 167 158 139 146 149 164
271 256 244 233 226 218 201 180 173 167 163 156 158 174 204 241 271 261 178 167 186 170 169 178 175 166 164 146 150 180 205 204 173 175 171 171 169 173 171 170 168 168 155
339 327 278 239 231 225 190 161 158 158 154 148 144 161 219 243 269 249 189 173 172 162 174 190 187 162 153 156 151 155 201 177 168 163 162 167 169 177 184 184 180 173 170
37 39 30 10 258 199 159 147 152 153 143 130 116 90 248 262 261 255 216 199 178 168 184 194 196 169 151 147 149 167 191 165 163 173 183 194 197 195 191 185 177 172 166
48 47 45 45 37 71 110 124 129 135 130 131 129 165 282 278 277 281 245 203 183 163 169 175 173 155 131 121 130 141 146 149 169 199 211 210 202 181 161 158 159 152 129
45 33 46 68 65 61 76 113 142 172 157 144 152 212 261 275 259 258 227 163 155 118 100 100 89 89 79 78 82 103 145 167 181 203 215 205 172 171 171 161 159 157 155
74 52 45 67 92 90 80 79 155 172 161 150 186 207 224 253 243 203 170 154 146 136 116 89 81 88 105 137 210 236 219 217 221 211 209 195 189 192 182 164 155 158 180
107 71 56 79 96 107 106 89 60 64 64 79 124 182 227 256 285 214 184 161 149 145 125 138 161 179 199 210 215 222 223 223 223 225 232 224 209 205 193 178 173 179 191
146 153 129 106 105 116 120 116 100 54 54 52 46 50 61 46 38 109 150 148 149 147 130 158 184 199 209 217 223 229 240 250 243 236 236 227 213 208 198 193 189 186 185
149 156 142 136 131 131 132 130 133 135 74 36 37 51 67 66 71 97 116 116 131 143 150 184 207 215 217 218 222 227 238 247 251 255 246 223 207 202 204 199 192 182 169
153 148 128 119 124 127 127 123 125 132 119 102 82 66 72 73 75 92 103 84 145 200 222 229 229 226 225 227 229 228 225 227 236 240 241 221 205 200 199 195 188 173 158
159 151 134 120 107 102 101 102 102 109 113 113 104 79 65 62 69 72 68 58 212 235 232 234 238 236 231 227 224 223 223 222 225 225 224 214 201 196 200 192 183 172 160
146 133 123 109 101 99 94 97 108 116 123 127 143 192 165 124 146 232 245 251 250 249 245 239 233 233 232 227 221 220 222 223 214 210 210 204 193 191 187 181 175 160 145
142 133 127 129 123 111 102 97 102 105 115 119 98 113 182 184 339 330 309 293 281 272 267 261 258 247 236 230 227 228 231 230 220 207 204 199 193 185 177 173 165 155 149
147 142 133 118 110 119 108 102 106 113 111 117 127 116 132 269 311 319 316 308 290 284 277 265 269 268 253 237 229 227 233 232 220 203 196 193 190 188 183 186 179 168 172
149 146 139 124 109 112 116 119 123 120 109 105 110 112 107 358 349 345 343 339 311 279 270 268 272 284 285 269 243 234 237 239 223 207 198 193 191 190 190 191 190 187 181
144 138 132 128 127 125 123 123 121 106 92 92 89 80 55 43 30 17 12 6 354 334 324 314 297 295 293 285 274 259 252 248 239 211 195 194 195 196 194 196 192 183 181
141 132 123 118 117 119 117 114 110 105 90 74 64 57 52 49 39 26 14 6 353 340 337 336 339 344 339 323 313 307 290 263 239 219 198 188 188 189 185 190 191 187 190